Location: Cheching
(60.0667°N, 164.2167°W)
Time: 10:06:35
(UTC+00:00)

NOAA 19 - Pass Details

Date: 25 January 2021
Orbit: 840 x 862 km, 99.2° (Epoch: 26 February)

Event Time Altitude Azimuth Distance (km) Brightness Sun altitude
Rises 16:34:16 0° 22° (NNE) 3,430 8.6 -20.5°
Reaches altitude 10° 16:37:17 10° 38° (NE) 2,485 8.1 -20.2°
Maximum altitude 16:41:21 21° 86° (E) 1,828 7.9 -19.7°
Drops below altitude 10° 16:45:24 10° 135° (SE) 2,464 8.3 -19.2°
Sets 16:48:22 0° 151° (SSE) 3,392 8.8 -18.8°
